Date String (YYYY-MM-DD hh:mm:ss) UTC,Instrument flags,Ambient pressure (hPa),Sample flow (lpm),Bypass flow (lpm),Sample temperature (°C),Ambient temperature (°C),ASC tube jacket temperature (°C),LED temperature (°C),Box temperature (°C),Sample RH (%),Span deviation,Mass concentration (μg/m³),Mass concentration (μg/m³),Mass concentration (μg/m³)
DateTimeUTC,F1_M11,P_M11,Q1_M11,Q2_M11,T1_M11,T2_M11,T3_M11,T4_M11,T5_M11,U1_M11,ZSPAN_M11,X0_M11,X2_M11,X1_M11
2023-02-08 07:00:00,,0827.8,4.94,0.00,22.4,21.1,00.0,31.3,24.1,08.8,0000.0,0006.88,0003.13,0002.39
2023-02-08 07:01:00,,0827.8,5.02,0.00,22.4,21.0,00.0,31.3,24.1,08.6,0000.0,0006.59,0003.18,0002.47
2023-02-08 07:02:00,,0827.8,4.98,0.00,22.4,20.9,00.0,31.3,24.1,08.7,0000.0,0007.24,0003.19,0002.50
2023-02-08 07:03:00,,0827.9,5.00,0.00,22.4,20.8,00.0,31.3,24.0,08.8,0000.0,0008.33,0003.24,0002.56
2023-02-08 07:04:00,,0827.9,4.99,0.00,22.3,20.6,00.0,31.3,24.0,09.0,0000.0,0008.58,0003.29,0002.64
2023-02-08 07:05:00,,0827.9,4.98,0.00,22.3,20.5,00.0,31.3,23.9,09.1,0000.0,0008.73,0003.32,0002.70
2023-02-08 07:06:00,,0827.9,5.00,0.00,22.3,20.4,00.0,31.2,23.9,09.4,0000.0,0008.47,0003.33,0002.77
2023-02-08 07:07:00,,0827.9,4.98,0.00,22.2,20.2,00.0,31.2,23.8,09.5,0000.0,0008.43,0003.35,0002.84
2023-02-08 07:08:00,,0827.9,4.99,0.00,22.1,20.1,00.0,31.2,23.7,09.6,0000.0,0008.30,0003.29,0002.76
2023-02-08 07:09:00,,0827.9,5.00,0.00,22.1,19.9,00.0,31.2,23.6,09.7,0000.0,0008.18,0003.20,0002.53
2023-02-08 07:10:00,,0827.9,5.03,0.00,22.0,19.8,00.0,31.1,23.5,09.8,0000.0,0008.18,0003.16,0002.45
2023-02-08 07:11:00,,0827.9,5.03,0.00,22.0,20.1,00.0,31.1,23.6,09.8,0000.0,0008.50,0003.20,0002.46
2023-02-08 07:12:00,,0827.9,4.98,0.00,22.1,21.2,00.0,31.0,23.8,09.9,0000.0,0009.22,0003.28,0002.51
2023-02-08 07:13:00,,0827.9,4.99,0.00,22.2,22.3,00.0,31.0,24.1,09.9,0000.0,0009.51,0003.37,0002.59
2023-02-08 07:14:00,,0827.9,5.01,0.00,22.3,22.3,00.0,31.0,24.1,10.1,0000.0,0009.81,0003.44,0002.67
2023-02-08 07:15:00,,0827.9,5.00,0.00,22.2,21.7,00.0,31.1,24.0,10.0,0000.0,0010.30,0003.50,0002.73
2023-02-08 07:16:00,,0827.8,5.03,0.00,22.2,21.2,00.0,31.1,23.9,10.1,0000.0,0010.56,0003.59,0002.80
2023-02-08 07:17:00,,0827.8,4.99,0.00,22.1,20.7,00.0,31.1,23.8,10.2,0000.0,0011.55,0003.68,0002.85
2023-02-08 07:18:00,,0827.8,4.96,0.00,22.1,20.3,00.0,31.1,23.6,10.3,0000.0,0011.67,0003.73,0002.90
2023-02-08 07:19:00,,0827.8,5.03,0.00,22.0,20.1,00.0,31.1,23.5,10.3,0000.0,0012.11,0003.78,0002.94
2023-02-08 07:20:00,,0827.8,5.02,0.00,22.0,19.9,00.0,31.0,23.5,10.4,0000.0,0012.55,0003.81,0002.99
2023-02-08 07:21:00,,0827.7,5.01,0.00,21.9,19.8,00.0,31.0,23.4,10.6,0000.0,0013.04,0003.87,0003.07
2023-02-08 07:22:00,,0827.7,4.99,0.00,21.9,19.7,00.0,31.0,23.3,10.7,0000.0,0013.29,0003.96,0003.15
2023-02-08 07:23:00,,0827.7,5.00,0.00,21.8,19.6,00.0,30.9,23.3,10.7,0000.0,0012.88,0004.01,0003.20
2023-02-08 07:24:00,,0827.7,5.00,0.00,21.8,19.6,00.0,30.9,23.2,10.8,0000.0,0012.61,0004.08,0003.26
2023-02-08 07:25:00,,0827.7,4.98,0.00,21.8,20.1,00.0,30.9,23.4,10.9,0000.0,0011.89,0004.14,0003.32
2023-02-08 07:26:00,,0827.7,5.01,0.00,21.9,21.3,00.0,30.8,23.7,10.8,0000.0,0011.91,0004.23,0003.38
2023-02-08 07:27:00,,0827.7,5.03,0.00,22.0,22.3,00.0,30.8,24.0,10.7,0000.0,0012.42,0004.36,0003.44
2023-02-08 07:28:00,,0827.7,5.02,0.00,22.1,22.1,00.0,30.9,23.9,10.7,0000.0,0012.54,0004.41,0003.48
2023-02-08 07:29:00,,0827.7,4.98,0.00,22.0,21.5,00.0,30.9,23.8,10.6,0000.0,0012.84,0004.49,0003.54
2023-02-08 07:30:00,,0827.6,4.99,0.00,22.0,21.0,00.0,30.9,23.7,10.6,0000.0,0013.19,0004.54,0003.60
2023-02-08 07:31:00,,0827.6,5.05,0.00,22.0,20.6,00.0,30.9,23.6,10.6,0000.0,0013.51,0004.57,0003.65
2023-02-08 07:32:00,,0827.6,5.05,0.00,21.9,20.3,00.0,30.9,23.5,10.6,0000.0,0013.34,0004.59,0003.67
2023-02-08 07:33:00,,0827.6,4.98,0.00,21.9,20.1,00.0,30.9,23.5,10.6,0000.0,0013.39,0004.63,0003.68
2023-02-08 07:34:00,,0827.6,5.06,0.00,21.9,20.0,00.0,30.9,23.5,10.7,0000.0,0013.26,0004.63,0003.69
2023-02-08 07:35:00,,0827.5,4.97,0.00,21.9,20.1,00.0,30.8,23.5,10.7,0000.0,0013.24,0004.63,0003.71
2023-02-08 07:36:00,,0827.5,4.98,0.00,21.8,20.1,00.0,30.8,23.5,10.7,0000.0,0013.28,0004.61,0003.71
2023-02-08 07:37:00,,0827.5,5.00,0.00,21.8,20.1,00.0,30.8,23.5,10.7,0000.0,0012.89,0004.56,0003.70
2023-02-08 07:38:00,,0827.6,5.00,0.00,21.8,20.2,00.0,30.8,23.5,10.6,0000.0,0013.47,0004.47,0003.69
2023-02-08 07:39:00,,0827.5,5.05,0.00,21.8,20.2,00.0,30.8,23.5,10.6,0000.0,0013.66,0004.43,0003.69
2023-02-08 07:40:00,,0827.5,5.01,0.00,21.9,20.3,00.0,30.8,23.6,10.6,0000.0,0014.39,0004.39,0003.68
2023-02-08 07:41:00,,0827.4,5.02,0.00,21.9,20.3,00.0,30.8,23.6,10.6,0000.0,0014.03,0004.40,0003.67
2023-02-08 07:42:00,,0827.4,5.08,0.00,21.9,20.4,00.0,30.8,23.6,10.6,0000.0,0014.23,0004.39,0003.67
2023-02-08 07:43:00,,0827.4,5.03,0.00,21.9,20.3,00.0,30.8,23.6,10.6,0000.0,0014.96,0004.37,0003.68
2023-02-08 07:44:00,,0827.4,5.05,0.00,21.9,20.3,00.0,30.8,23.6,10.6,0000.0,0014.72,0004.34,0003.69
2023-02-08 07:45:00,,0827.4,5.05,0.00,21.8,20.3,00.0,30.8,23.5,10.5,0000.0,0015.48,0004.34,0003.70
2023-02-08 07:46:00,,0827.4,4.97,0.00,21.9,20.9,00.0,30.7,23.7,10.5,0000.0,0016.13,0004.33,0003.71
2023-02-08 07:47:00,,0827.4,4.97,0.00,22.0,21.9,00.0,30.7,23.9,10.5,0000.0,0015.69,0004.31,0003.71
2023-02-08 07:48:00,,0827.4,4.92,0.00,22.1,22.8,00.0,30.7,24.2,10.4,0000.0,0016.20,0004.38,0003.73
2023-02-08 07:49:00,,0827.4,5.04,0.00,22.2,22.5,00.0,30.8,24.2,10.4,0000.0,0015.73,0004.45,0003.76
2023-02-08 07:50:00,,0827.4,5.04,0.00,22.2,22.1,00.0,30.9,24.1,10.4,0000.0,0015.02,0004.52,0003.79
2023-02-08 07:51:00,,0827.3,5.00,0.00,22.2,21.7,00.0,30.9,24.1,10.3,0000.0,0013.57,0004.57,0003.83
2023-02-08 07:52:00,,0827.3,5.06,0.00,22.2,21.5,00.0,30.9,24.0,10.3,0000.0,0013.79,0004.61,0003.86
2023-02-08 07:53:00,,0827.4,4.97,0.00,22.2,21.3,00.0,30.9,24.0,10.3,0000.0,0013.91,0004.67,0003.90
2023-02-08 07:54:00,,0827.3,5.02,0.00,22.2,21.2,00.0,31.0,24.0,10.3,0000.0,0012.82,0004.76,0003.94
2023-02-08 07:55:00,,0827.2,4.94,0.00,22.2,21.1,00.0,31.0,24.0,10.3,0000.0,0012.65,0004.85,0003.97
2023-02-08 07:56:00,,0827.2,4.93,0.00,22.2,21.1,00.0,31.0,24.0,10.2,0000.0,0012.93,0004.89,0003.99
2023-02-08 07:57:00,,0827.2,5.06,0.00,22.2,21.0,00.0,31.0,23.9,10.2,0000.0,0012.16,0004.93,0004.00
2023-02-08 07:58:00,,0827.2,4.98,0.00,22.2,20.8,00.0,31.0,23.9,10.2,0000.0,0012.30,0004.96,0004.00
2023-02-08 07:59:00,,0827.2,4.97,0.00,22.2,20.7,00.0,31.0,23.9,10.1,0000.0,0011.82,0004.94,0004.00
